GFSSW_2pvu_pres_159.txt.gz
Presure
178 208 201 205 211 209 121 120 123 117 119 130 129 121 191 183 175 161 156 155 157 156 151 150 152 150 132 136 145 135 118 140 139 136 142 125 147 131 135 136 142 147 156 164 196
176 192 198 206 206 203 117 199 181 118 123 124 207 133 162 207 208 209 209 207 192 194 168 163 152 149 151 147 142 144 151 133 147 144 139 150 125 134 135 137 143 138 146 165 145
180 194 203 202 198 194 195 126 125 125 197 126 126 199 192 202 198 196 194 197 200 199 198 196 205 270 242 158 156 99 150 132 118 137 163 193 143 143 134 140 131 143 142 149 160
177 177 200 199 193 194 195 204 196 191 195 200 200 190 190 196 201 200 197 194 194 190 188 191 193 128 265 223 171 146 149 151 150 113 118 130 145 125 132 141 135 140 156 138 154
181 175 172 173 195 188 190 189 187 187 189 188 186 181 179 174 186 199 198 197 187 189 181 185 185 189 245 211 211 179 165 155 130 157 173 128 144 119 147 139 134 135 144 144 154
183 177 174 175 174 173 173 175 178 178 177 175 175 175 177 173 170 168 163 165 202 189 178 184 187 177 214 168 171 172 210 167 117 136 124 154 132 126 152 122 134 140 134 148 144
182 174 173 171 175 203 203 203 204 204 206 208 209 211 213 218 227 238 224 176 171 201 191 189 186 177 224 156 177 122 193 137 164 153 137 150 148 139 146 138 129 142 145 148 151
193 178 197 220 218 216 216 218 224 231 236 238 194 182 187 188 190 194 212 236 217 178 202 191 181 173 171 167 157 123 215 193 136 168 158 147 135 172 166 170 125 135 149 141 152
206 205 203 204 201 198 209 205 203 216 221 216 223 235 233 203 174 175 194 205 235 231 187 203 180 177 165 171 162 178 114 137 182 138 168 144 152 157 152 126 137 134 141 140 139
203 193 191 198 201 196 198 203 201 202 212 216 211 210 215 225 226 222 182 190 209 239 210 202 179 175 162 174 160 165 163 176 147 178 141 150 168 157 159 145 149 143 142 142 134
185 196 182 181 179 191 190 183 183 188 194 190 192 211 218 212 221 234 233 217 196 232 237 215 193 179 168 174 160 190 173 186 171 178 186 153 167 147 159 139 131 138 124 140 151
185 176 183 182 189 186 187 188 188 182 185 188 185 191 188 202 210 228 279 249 192 204 230 248 214 185 176 166 162 177 151 128 200 200 188 164 137 142 164 132 140 131 132 146 149
170 191 192 179 178 176 162 171 166 166 166 171 178 180 188 175 180 206 231 269 254 223 231 239 233 197 184 171 195 186 165 176 152 133 187 143 137 141 204 139 135 139 152 132 159
183 180 173 181 172 176 167 170 171 172 163 178 173 169 165 180 184 171 196 229 265 266 199 224 265 205 195 185 179 163 175 168 162 163 160 159 167 121 180 138 146 199 128 142 157
170 167 170 168 166 171 171 159 167 163 167 165 156 169 180 177 162 185 177 191 215 253 282 218 267 246 212 186 178 178 167 178 183 162 175 143 159 169 181 147 135 157 139 152 154
165 162 160 159 156 163 168 170 165 158 167 167 173 170 167 157 170 175 171 180 183 213 232 277 226 257 220 208 185 172 175 164 161 164 163 168 133 164 186 140 163 140 155 156 147
160 160 153 159 146 163 170 168 159 157 163 163 168 169 171 167 165 168 179 171 177 182 209 225 248 268 242 225 202 193 173 176 170 177 162 164 156 151 140 155 154 135 135 170 151
164 160 166 166 167 154 177 178 182 186 159 165 161 166 165 169 168 169 172 177 166 183 188 197 220 244 291 238 271 198 185 173 169 169 178 165 162 133 140 137 139 143 147 165 161
160 156 164 155 161 164 169 176 187 192 195 169 160 158 159 163 168 164 172 174 177 178 179 190 191 223 235 265 228 266 194 200 209 185 182 177 176 172 138 134 144 127 146 123 146
154 156 138 157 161 162 162 164 170 180 188 188 166 168 156 153 165 163 166 172 175 175 177 185 197 204 220 228 258 226 259 212 202 217 207 192 189 144 160 158 139 141 159 131 152
154 145 150 151 157 158 158 166 164 170 172 179 184 181 175 175 167 159 163 168 167 167 175 177 194 208 214 217 225 256 222 252 212 207 220 209 197 204 133 182 175 170 128 132 140
137 150 142 152 148 155 160 159 163 174 176 171 183 185 183 187 168 169 172 165 175 168 179 179 182 210 218 215 214 227 250 221 243 210 214 231 204 179 127 174 144 180 188 136 158
139 134 140 133 148 143 160 165 176 179 179 180 179 184 187 185 154 171 185 162 165 170 179 179 178 211 221 219 217 214 230 260 223 246 203 207 240 215 191 181 179 137 138 133 132
151 136 156 160 177 185 180 173 178 176 181 177 177 194 193 192 193 172 175 169 172 179 180 213 196 222 237 221 218 209 213 232 274 221 230 227 213 239 217 193 138 180 155 160 133
159 152 160 179 174 178 176 169 174 179 181 188 195 195 226 159 212 205 232 224 220 228 246 238 227 230 211 231 220 220 206 220 231 249 223 230 232 216 228 234 186 191 181 150 128
151 169 178 182 172 175 168 173 177 177 184 216 224 229 160 215 212 207 205 207 215 229 217 227 230 211 199 244 225 222 206 214 223 255 249 222 239 236 236 221 248 207 207 188 183
185 176 171 160 169 181 170 178 193 215 236 230 228 142 207 205 200 194 200 205 211 215 218 212 237 220 203 233 228 227 213 209 218 246 256 245 228 237 213 206 238 219 203 184 186

GFSSW_2pvu_pres_162.txt.gz
Presure
186 178 181 183 196 204 160 143 116 120 117 117 119 120 138 137 161 150 150 154 156 154 152 148 149 146 126 137 140 136 141 141 139 140 138 135 128 133 141 132 142 145 147 150 154
199 183 179 200 205 212 211 171 152 207 116 125 128 126 180 183 166 212 173 166 163 161 154 155 156 151 146 149 141 108 134 147 138 143 151 150 142 152 130 129 141 147 136 154 159
196 188 180 210 210 208 192 200 197 124 119 117 118 123 196 193 134 203 209 208 207 207 210 214 192 165 153 148 147 145 139 143 140 118 147 129 160 198 142 128 141 140 143 136 152
189 181 178 194 205 195 196 199 204 207 205 208 213 209 205 202 202 200 198 197 196 195 201 203 202 201 213 265 159 152 153 131 111 127 153 156 156 144 129 152 134 138 142 141 147
189 180 180 174 173 174 183 187 190 191 190 185 184 185 194 194 195 196 203 199 195 192 202 196 189 186 197 232 128 182 165 161 149 104 134 130 132 137 145 138 163 140 135 142 150
187 184 181 179 178 174 173 172 171 172 175 179 183 184 181 180 179 176 179 204 207 194 186 178 186 182 243 200 208 191 195 153 132 111 131 150 149 139 142 132 163 145 140 136 151
191 211 182 175 206 204 227 236 238 237 223 205 208 213 216 216 181 172 174 170 168 167 193 181 182 179 186 198 188 180 190 122 143 174 162 126 129 132 137 139 200 137 136 147 133
193 201 202 220 219 215 209 206 208 209 220 230 239 237 200 192 201 208 213 223 245 167 168 189 181 178 193 180 190 189 189 138 190 170 167 143 157 147 148 158 169 143 138 140 135
207 208 207 207 198 204 207 204 205 214 220 216 216 221 231 236 228 182 183 181 213 243 175 163 189 181 169 177 191 182 163 181 128 194 148 161 166 153 141 144 139 149 131 147 138
205 197 205 203 197 192 193 192 194 196 199 208 216 216 214 221 231 238 235 195 197 217 245 173 194 184 169 181 184 184 185 174 197 199 129 134 164 125 134 175 137 129 154 137 136
189 202 186 190 194 187 191 182 189 191 183 185 180 194 198 203 212 229 268 296 182 193 243 188 194 184 173 166 181 181 181 165 207 195 140 175 145 173 182 136 158 147 126 141 147
192 182 179 192 185 186 185 170 165 165 175 169 183 184 179 173 195 204 230 277 255 209 223 222 185 190 178 170 169 173 168 172 167 195 183 167 181 186 184 170 124 146 132 132 133
173 196 189 180 180 172 173 160 174 177 176 167 166 163 166 187 179 190 202 225 273 268 199 228 196 199 186 183 173 168 173 179 143 121 142 181 176 147 156 163 176 141 125 141 149
189 183 179 170 173 165 173 171 159 156 159 173 177 177 175 171 163 181 184 199 218 254 274 227 213 199 195 183 180 181 173 177 190 182 167 198 196 180 165 139 128 150 146 157 142
170 172 167 160 169 167 166 164 164 162 164 160 170 176 162 159 178 170 181 181 195 214 239 209 219 276 204 193 181 179 177 168 173 181 163 151 175 207 145 143 182 156 143 117 147
157 166 164 162 149 154 160 157 161 157 169 153 160 161 172 168 168 157 173 182 189 184 208 232 258 228 264 210 192 183 174 176 179 198 173 164 163 185 156 152 148 151 143 152 146
156 164 169 170 169 173 177 178 182 171 185 173 167 165 165 168 165 169 170 177 165 188 187 201 227 240 279 247 210 187 177 170 172 178 182 168 170 164 180 174 149 179 141 147 144
165 166 161 161 164 161 160 163 165 171 182 190 194 165 157 153 166 168 156 174 173 170 184 190 186 212 238 252 267 201 184 182 182 194 181 174 182 143 166 186 195 183 133 132 141
162 151 143 147 157 150 161 159 166 163 164 170 178 185 187 180 155 160 164 167 169 165 181 168 182 195 199 225 246 257 264 199 174 174 178 169 171 167 163 133 137 147 161 138 144
139 153 154 147 145 148 157 158 158 156 165 170 172 171 173 176 175 174 176 160 165 170 169 183 166 170 188 201 223 239 246 267 199 181 178 169 170 171 175 159 134 141 146 136 155
140 135 129 129 151 133 134 135 180 180 187 178 181 182 182 182 182 181 173 189 166 159 170 171 176 186 182 186 214 226 234 236 287 190 187 180 174 170 171 168 165 141 130 134 193
144 146 137 128 127 152 156 173 182 185 182 173 173 179 180 181 184 182 191 152 160 185 177 174 176 180 172 192 188 219 232 232 234 276 261 203 182 177 179 176 174 180 155 150 130
140 142 137 152 156 149 177 175 172 177 172 181 173 178 186 186 169 198 198 211 166 150 245 186 180 179 193 201 197 219 223 226 226 239 283 251 196 196 213 198 190 191 193 165 215
149 154 151 150 147 159 175 167 164 169 178 174 176 177 188 192 223 226 224 229 204 175 221 225 222 242 235 228 215 217 231 235 223 227 235 268 256 201 199 221 199 204 142 140 199
153 147 145 150 161 180 170 168 162 171 184 188 199 206 249 248 236 227 221 149 189 208 203 194 204 221 235 236 216 226 211 233 222 227 224 259 235 248 211 217 235 207 174 193 201
152 148 154 162 180 171 162 167 178 182 205 242 271 258 229 207 202 205 149 196 197 200 203 198 200 196 217 219 229 233 206 212 224 231 225 225 266 230 242 202 213 223 224 185 127
158 161 169 186 166 177 175 185 185 195 245 209 209 203 204 198 193 203 199 188 205 211 211 213 208 211 196 215 216 229 213 198 223 225 228 222 229 258 229 226 211 227 234 235 149

GFSSW_2pvu_pres_165.txt.gz
Presure
185 185 181 185 193 179 181 183 184 163 208 218 116 154 124 121 123 126 152 153 156 158 143 140 140 138 96 110 119 129 144 142 149 172 144 154 131 133 157 180 147 138 133 154 162
189 183 184 181 180 182 198 199 150 153 213 217 219 128 216 128 161 127 164 163 153 145 147 151 150 149 147 149 146 106 129 135 122 150 162 153 122 149 150 165 144 134 140 125 154
193 191 189 172 179 209 207 218 206 207 196 120 117 118 137 212 212 132 140 147 209 184 165 159 159 152 151 149 151 147 149 101 115 149 149 148 157 151 168 159 145 153 139 136 149
207 192 185 175 184 204 201 195 193 194 195 197 201 204 205 201 205 205 206 208 209 211 209 205 209 208 178 164 159 152 148 136 149 153 159 134 143 153 171 140 130 153 141 148 143
184 190 185 180 175 174 184 189 193 193 195 203 205 204 212 213 205 201 201 200 200 194 192 197 204 203 204 210 207 164 155 161 156 125 128 138 150 132 145 149 125 159 134 139 148
194 186 187 184 180 178 173 172 173 174 176 182 186 188 185 185 184 192 195 193 203 195 190 198 191 192 192 195 202 254 201 173 164 139 118 129 133 158 137 149 131 141 144 139 148
197 195 191 183 177 203 223 227 231 240 244 244 208 211 214 175 175 177 178 178 175 198 191 200 196 189 189 186 195 240 214 206 176 171 141 136 158 143 153 133 132 145 155 140 134
196 202 199 218 218 211 205 206 212 225 223 220 229 244 244 208 203 208 212 180 166 168 171 198 194 178 178 180 229 229 210 209 188 198 165 169 170 160 167 147 135 174 162 134 146
211 211 207 204 201 208 205 201 214 215 214 216 214 218 230 237 236 219 195 201 203 216 169 167 180 185 183 183 191 218 197 204 195 190 166 182 151 154 140 142 152 149 149 140 136
212 203 206 203 194 194 191 193 201 202 208 211 209 208 210 211 215 227 263 199 184 183 215 215 175 169 172 184 185 201 192 143 198 181 191 186 183 179 166 123 130 149 129 140 134
200 188 190 198 187 194 190 175 179 181 182 186 185 179 181 196 203 207 219 264 234 171 192 238 200 177 182 179 183 183 185 200 181 169 184 186 184 135 141 162 163 140 158 124 137
178 186 191 190 192 186 173 167 177 174 169 171 171 167 166 180 183 200 204 218 260 254 188 191 232 189 179 186 179 198 181 195 179 174 176 200 189 183 162 160 180 157 148 134 122
187 186 178 186 172 170 176 165 164 163 163 178 163 179 166 171 170 180 189 208 213 273 195 178 240 224 184 190 183 182 185 189 171 187 165 187 201 190 178 174 130 173 146 126 142
198 190 170 168 178 171 175 164 165 165 161 166 156 165 166 175 178 180 174 180 202 214 250 223 202 236 197 185 192 207 175 190 177 169 167 128 123 191 178 185 138 199 167 132 153
172 164 158 166 151 155 159 159 161 153 163 166 161 161 159 171 168 173 168 176 182 194 212 240 206 232 230 189 194 187 180 166 170 170 174 176 149 191 189 185 144 194 134 168 119
167 157 152 156 163 165 171 174 178 182 183 183 175 170 174 162 168 163 173 167 170 176 180 204 229 254 226 211 200 193 184 177 181 174 179 181 191 151 199 177 181 171 145 183 130
160 154 170 159 166 166 159 161 164 167 172 180 190 193 187 168 163 165 165 169 172 164 169 178 192 213 236 246 245 193 190 183 178 182 180 180 181 182 148 216 162 160 164 137 154
164 165 158 168 161 145 155 154 149 161 161 164 167 170 178 184 188 181 169 159 177 169 167 175 174 179 199 217 244 265 231 192 186 183 180 179 173 177 184 148 162 150 147 175 171
158 142 151 157 148 137 136 148 137 152 152 151 169 179 182 171 173 176 176 162 170 156 168 175 180 179 180 190 206 222 249 261 198 188 180 180 177 170 179 188 164 149 169 159 133
137 143 139 129 132 134 137 148 149 140 131 186 181 173 175 175 179 179 185 183 182 177 168 175 183 166 170 179 185 194 219 240 260 244 181 183 181 190 165 196 139 184 149 182 154
153 157 145 149 140 148 147 156 146 152 179 169 178 161 166 172 170 176 178 183 182 187 189 180 171 185 186 189 172 185 194 215 234 247 244 190 184 183 171 149 152 176 153 168 177
153 144 148 140 151 153 154 153 146 189 176 163 162 171 170 172 168 172 174 178 181 190 200 157 214 162 174 181 185 177 187 194 217 227 242 266 217 180 185 172 171 179 163 148 157
146 160 150 157 150 146 149 151 154 186 178 172 161 186 177 201 201 213 211 223 235 226 223 222 227 153 232 245 194 191 199 216 221 217 224 235 249 200 203 179 179 180 167 158 152
160 156 160 170 161 151 152 159 164 181 171 166 179 184 177 205 249 273 262 242 237 227 222 222 215 214 164 195 227 249 242 234 229 217 219 224 238 226 253 192 189 186 180 170 158
156 154 168 162 156 160 157 159 183 173 164 170 179 198 191 242 208 206 208 206 203 203 209 210 149 162 205 206 205 211 248 234 232 217 225 225 217 227 243 248 220 191 191 185 178
160 169 159 163 153 155 158 177 173 174 185 195 215 209 213 226 209 198 189 210 197 194 191 197 192 186 187 196 198 198 199 224 238 225 240 234 216 216 242 219 240 223 203 206 220
171 167 155 160 153 168 182 170 184 177 226 222 257 241 243 227 200 197 206 199 196 205 211 209 207 194 202 208 212 206 207 209 215 221 232 218 217 214 222 256 227 234 235 202 200

GFSSW_2pvu_pres_168.txt.gz
Presure
166 168 189 181 184 183 184 191 197 201 190 163 144 112 163 162 159 149 124 125 140 143 141 138 139 140 141 138 129 117 132 138 152 147 126 141 164 169 136 148 173 148 142 140 156
190 191 186 182 184 173 173 182 180 111 112 148 143 184 160 181 131 129 127 125 157 151 150 150 151 152 147 142 142 118 134 117 127 134 132 162 149 143 156 145 170 150 153 132 148
194 205 190 180 184 181 171 193 199 202 205 206 207 163 211 119 118 208 211 210 184 166 160 157 143 144 146 149 151 97 150 149 150 151 152 142 134 168 151 163 135 138 149 156 143
194 212 188 192 185 177 175 210 210 205 201 197 198 200 200 136 207 164 202 213 212 211 143 221 183 163 160 157 156 152 146 148 152 152 150 136 162 149 161 163 143 140 149 149 151
196 207 187 190 181 177 171 173 190 185 190 193 195 203 206 214 217 207 203 199 200 204 209 212 209 209 208 201 170 128 163 162 161 111 161 138 130 131 122 138 137 146 139 159 149
201 188 192 186 184 184 178 179 174 173 173 173 175 183 187 190 183 192 213 202 197 200 207 200 200 200 203 203 207 208 185 172 171 166 153 153 152 142 130 155 137 144 136 145 148
194 190 194 207 204 202 230 229 225 227 230 235 242 249 179 171 174 182 181 182 189 194 195 193 195 192 197 195 196 201 207 242 187 178 172 114 166 122 150 165 162 143 142 136 162
193 197 208 221 217 209 208 211 214 224 222 221 221 230 241 249 244 204 208 182 177 179 181 179 196 199 194 192 194 195 197 199 215 195 181 148 196 171 119 144 159 155 143 178 162
216 213 208 204 204 210 202 209 205 218 222 223 221 217 217 214 214 221 252 248 207 212 176 173 173 169 195 193 190 181 190 186 224 203 193 179 171 169 169 167 159 142 141 155 139
211 200 201 198 196 189 195 204 198 192 186 183 182 185 195 200 203 204 208 221 267 200 203 214 200 171 169 175 183 190 181 185 215 212 191 192 172 185 190 178 148 124 133 146 156
201 192 198 187 200 193 185 176 179 180 172 172 176 169 169 182 192 196 205 210 214 257 185 192 201 239 184 176 192 166 180 204 199 199 206 187 185 194 197 192 190 173 145 142 160
184 185 190 193 192 183 163 173 164 171 174 177 171 180 176 162 172 179 184 191 208 256 278 226 173 212 245 190 181 177 179 185 210 208 172 187 188 184 183 144 191 135 154 169 147
193 187 193 175 169 180 175 168 167 164 161 161 157 159 167 170 165 168 170 181 184 210 243 248 216 192 237 214 188 184 178 184 182 179 196 184 178 176 193 188 125 190 179 155 141
198 181 171 161 166 160 161 159 161 172 161 165 161 160 158 160 165 161 170 165 176 185 202 226 275 214 180 239 202 184 178 182 182 184 191 184 169 174 163 214 195 195 150 170 159
174 161 164 161 169 160 171 171 173 170 173 183 187 188 185 181 156 162 163 169 169 169 180 188 215 252 180 237 237 192 180 178 171 183 179 188 189 162 130 141 207 186 186 135 185
160 161 168 166 172 169 161 160 155 152 159 160 168 178 197 193 188 157 161 162 165 168 170 173 182 199 225 203 228 238 187 177 185 172 183 172 176 171 175 152 194 177 186 140 144
170 166 164 151 155 149 153 151 154 152 151 155 152 153 160 168 176 184 184 169 156 173 164 164 169 177 183 210 231 251 241 188 186 182 166 183 177 177 171 161 183 192 180 176 183
165 139 158 161 147 135 147 135 138 133 133 150 152 144 177 177 179 174 174 179 182 177 175 164 168 187 180 178 195 223 236 249 190 188 186 168 174 189 184 169 157 180 182 180 173
163 150 146 163 135 134 138 141 145 151 143 151 162 188 194 184 170 174 180 182 180 182 183 178 173 186 164 182 173 190 206 228 249 248 189 189 184 182 182 183 150 184 168 152 188
150 133 150 143 130 140 141 144 153 154 147 147 169 176 172 161 173 174 177 176 174 179 179 183 183 167 160 173 192 184 178 193 218 227 290 223 197 186 185 183 167 155 145 154 154
157 152 160 140 145 136 151 150 147 149 147 149 165 175 173 162 155 180 172 181 195 196 177 183 188 187 196 191 192 161 169 169 173 195 224 249 238 226 202 191 185 170 165 152 160
151 157 145 161 156 147 161 141 144 140 149 155 158 176 168 161 166 173 170 194 182 228 263 245 200 200 192 148 151 163 163 172 180 182 186 213 223 260 225 205 202 153 186 196 134
148 150 160 159 154 156 168 174 152 157 153 156 166 178 168 162 175 174 176 194 197 251 256 253 243 235 233 228 231 150 152 168 167 168 180 183 209 221 248 233 202 201 182 168 140
156 159 160 153 156 158 167 163 151 153 154 157 176 173 184 173 185 209 224 210 214 209 204 219 224 230 229 233 226 219 188 191 210 203 171 196 201 210 221 246 257 201 197 169 157
164 169 161 161 165 169 169 156 168 158 158 191 167 175 178 209 235 236 247 236 245 215 201 192 189 198 197 207 218 158 212 199 214 227 252 225 216 187 216 220 244 248 241 213 189
159 159 166 169 170 165 160 159 167 162 186 180 167 167 210 240 227 236 253 248 234 206 200 200 203 198 195 209 213 142 157 191 201 207 209 250 223 224 209 222 215 239 237 248 209
164 167 164 169 168 157 165 163 163 195 176 171 191 212 206 234 240 234 199 207 200 205 205 198 196 197 202 206 213 214 216 190 201 198 201 208 231 226 213 223 217 218 237 236 250